Location: *
(46.3500°N, 10.9000°E)
Time: 16:06:17
(UTC+00:00)

S-56A Canister/Altair - All Passes

Search period start: 11 April 2021 00:00
Search period end: 21 April 2021 00:00
Orbit: 632 x 2500 km, 38.9° (Epoch: 10 April)

Date Brightness Start Highest point End Pass type
(mag) Time Alt. Az. Time Alt. Az. Time Alt. Az.
11 Apr - 00:54:49 10° SSW 00:57:46 16° SSE 01:00:30 10° ESE visible
11 Apr - 02:56:40 10° SW 03:00:39 31° S 03:04:43 10° ESE visible
11 Apr - 04:59:44 10° WSW 05:03:39 29° S 05:08:15 10° SE daylight
11 Apr - 07:04:03 10° WSW 07:06:47 14° SSW 07:09:56 10° S daylight
12 Apr - 00:22:27 10° S 00:25:16 15° SSE 00:27:50 10° ESE visible
12 Apr - 02:24:09 10° SW 02:28:12 30° S 02:32:07 10° ESE visible
12 Apr - 04:27:17 10° WSW 04:31:10 30° S 04:35:32 10° SE daylight
12 Apr - 06:31:27 10° WSW 06:34:13 15° SSW 06:37:24 10° S daylight
12 Apr - 23:50:03 10° S 23:52:45 14° SSE 23:55:10 10° SE night (unlit)
13 Apr - 01:51:34 10° SW 01:55:44 29° S 01:59:35 10° ESE visible
13 Apr - 03:54:48 10° WSW 03:58:42 30° S 04:02:54 10° SE visible
13 Apr - 05:58:52 10° WSW 06:01:42 16° SSW 06:04:53 10° SSE daylight
13 Apr - 23:17:39 10° S 23:20:12 13° SSE 23:22:30 10° SE night (unlit)
14 Apr - 01:18:55 10° SW 01:23:16 28° S 01:27:06 10° ESE visible
14 Apr - 03:22:15 10° WSW 03:26:15 31° S 03:30:19 10° ESE visible
14 Apr - 05:26:17 10° WSW 05:29:11 17° SSW 05:32:24 10° SSE daylight
14 Apr - 22:45:15 10° S 22:47:38 12° SSE 22:49:48 10° SE night (unlit)
15 Apr - 00:46:12 10° SW 00:50:48 27° SSE 00:54:40 10° ESE visible
15 Apr - 02:49:38 10° WSW 02:53:48 32° S 02:57:49 10° ESE visible
15 Apr - 04:53:40 10° WSW 04:56:41 18° SSW 04:59:58 10° SSE daylight
15 Apr - 22:12:52 10° S 22:15:02 12° SSE 22:17:00 10° SE night (unlit)
16 Apr - 00:13:25 10° SW 00:18:17 27° SSE 00:22:15 10° ESE visible
16 Apr - 02:16:57 10° WSW 02:21:21 33° S 02:25:21 10° ESE visible
16 Apr - 04:21:02 10° WSW 04:24:13 19° SSW 04:27:34 10° SSE daylight
16 Apr - 21:40:34 10° SSE 21:42:24 11° SSE 21:44:05 10° SE night (unlit)
16 Apr - 23:40:33 10° SW 23:45:45 26° SSE 23:49:52 10° ESE night (unlit)
17 Apr - 01:44:12 10° WSW 01:48:54 35° S 01:52:56 10° ESE visible
17 Apr - 03:48:21 10° WSW 03:51:46 21° SSW 03:55:12 10° SSE visible
17 Apr - 21:08:29 10° SSE 21:09:44 10° SSE 21:10:54 10° SE night (unlit)
17 Apr - 23:07:38 10° SW 23:13:11 26° SSE 23:17:28 10° ESE night (unlit)
18 Apr - 01:11:21 10° WSW 01:16:25 36° S 01:20:34 10° ESE visible
18 Apr - 03:15:38 10° WSW 03:19:20 23° SSW 03:22:53 10° SE visible
18 Apr - 22:34:41 10° SW 22:40:36 25° SSE 22:45:05 10° ESE night (unlit)
19 Apr - 00:38:26 10° WSW 00:43:55 37° S 00:48:14 10° ESE visible
19 Apr - 02:42:50 10° WSW 02:46:53 26° SSW 02:50:34 10° SE visible
19 Apr - 22:01:40 10° SSW 22:07:57 25° SSE 22:12:41 10° ESE night (unlit)
20 Apr - 00:05:25 10° WSW 00:11:24 38° S 00:15:54 10° ESE visible
20 Apr - 02:10:00 10° WSW 02:14:26 29° SSW 02:18:18 10° SE visible
20 Apr - 21:28:38 10° SSW 21:35:17 24° SSE 21:40:16 10° ESE visible
20 Apr - 23:32:19 10° WSW 23:38:50 38° S 23:43:35 10° ESE night (unlit)
